Theta_e
319 315 309 310 315 318 320 322 323 322 325 325 329 338 340 347 347 354 354 351 358 361 361 360 361 362 364 366 365 365 365 364
315 311 314 313 316 319 322 324 325 325 322 337 342 341 344 348 349 348 351 356 359 360 359 359 359 360 362 363 364 364 364 364
315 311 313 317 319 321 322 324 322 326 322 335 344 348 349 349 347 344 348 358 354 360 358 358 358 357 358 360 362 363 363 360
309 310 314 316 319 321 322 323 324 322 325 335 347 347 350 349 348 345 347 355 353 358 358 357 357 357 357 358 358 359 360 360
310 311 311 315 320 320 321 322 322 327 328 337 342 347 350 351 352 350 349 352 354 351 355 357 357 357 358 358 358 357 358 357
311 311 310 318 319 320 319 324 333 336 329 331 343 349 350 351 349 348 349 350 352 354 352 350 348 357 357 357 357 357 357 357
309 310 312 320 319 323 323 329 333 337 339 343 346 347 346 346 346 347 347 348 349 348 351 350 349 354 356 357 357 356 356 357
313 313 312 319 321 322 323 329 327 334 341 344 345 344 342 341 340 340 343 345 349 349 349 348 347 359 358 353 351 351 350 354
314 317 316 318 325 329 329 327 331 332 338 342 342 341 339 342 344 339 342 347 352 352 353 349 352 351 348 350 352 354 354 354
320 319 320 320 330 331 332 333 338 340 343 343 343 342 341 339 339 340 339 345 350 353 354 356 353 351 350 347 353 354 355 358
321 323 326 330 330 332 333 338 341 342 342 340 338 337 335 336 336 336 338 344 346 350 349 349 350 347 349 349 342 343 343 349
322 323 327 328 329 333 336 340 337 333 332 332 331 331 332 333 333 335 338 337 342 345 349 348 353 352 348 347 351 348 343 340
319 325 326 332 325 329 337 338 334 330 329 328 328 329 330 332 333 333 336 338 337 343 349 349 349 351 351 349 350 350 344 347
320 321 323 324 320 329 336 335 328 326 325 325 327 327 330 332 333 335 335 337 340 337 339 344 344 344 343 345 348 347 347 346
314 320 321 319 321 330 334 333 325 322 321 323 326 328 330 331 333 334 335 336 336 339 337 337 340 337 338 345 342 343 343 346
311 317 318 319 323 328 331 330 324 322 321 322 324 326 329 332 333 334 333 335 335 334 335 338 333 334 330 330 332 334 336 338
317 320 318 320 323 325 328 327 322 320 321 322 322 327 330 330 331 332 332 333 333 332 336 332 327 325 324 323 326 326 328 334
317 319 319 321 320 325 325 323 322 322 322 322 324 326 328 330 330 331 330 331 332 332 334 332 328 329 328 327 324 326 327 336
312 316 318 318 315 318 326 325 325 326 325 325 325 325 328 328 330 331 330 331 329 330 332 332 333 330 329 329 325 322 324 325
311 310 304 318 305 314 323 322 324 325 326 325 325 326 327 326 326 325 324 330 328 330 330 330 333 332 334 323 321 323 323 325
Wind_Speed
12 14 7 13 9 9 10 4 7 9 14 14 10 16 14 10 8 15 13 13 16 11 10 10 9 8 8 10 11 11 11 12
11 9 8 9 7 2 16 18 6 28 9 17 14 14 15 10 10 10 14 17 15 11 9 8 8 8 8 9 11 12 12 12
3 10 7 9 5 2 23 15 13 25 9 19 16 15 13 9 8 9 12 18 15 11 10 8 7 6 6 6 8 9 10 11
7 10 11 6 2 5 9 15 17 2 16 17 16 14 11 10 9 11 11 14 15 13 11 9 8 8 7 5 5 5 6 7
4 9 11 9 6 9 14 10 9 15 30 15 15 11 12 12 10 10 10 15 12 12 10 9 9 9 9 8 7 7 7 6
4 7 14 7 6 8 9 19 15 19 19 14 11 11 13 12 12 10 8 12 16 12 12 10 11 9 8 9 9 8 8 9
10 9 11 10 14 10 4 17 19 15 15 12 10 10 12 12 12 10 4 8 11 9 17 12 15 13 10 8 6 6 8 10
7 8 9 10 14 12 8 18 11 19 13 9 8 13 16 15 14 13 10 4 2 4 5 4 2 15 12 12 10 10 10 11
5 7 6 7 16 15 18 18 16 13 12 18 15 8 10 15 23 18 17 15 3 8 4 4 7 3 4 6 9 7 3 7
8 3 6 7 16 18 19 18 15 15 14 14 16 18 18 15 17 9 4 10 10 12 10 8 9 11 5 5 7 4 5 6
5 6 8 14 16 18 18 17 18 16 18 19 18 20 22 18 19 17 15 16 18 16 11 6 5 5 10 13 7 9 8 14
8 7 9 13 13 14 21 19 20 17 18 21 21 20 16 18 17 16 16 16 14 11 5 5 6 7 4 1 4 3 5 9
7 11 11 27 10 16 23 15 21 18 18 18 17 19 19 17 16 17 14 15 16 16 13 10 7 7 5 5 3 6 6 9
15 7 7 11 14 16 19 18 18 18 17 16 17 17 17 16 16 15 15 16 15 14 14 12 9 7 6 5 2 3 4 5
11 12 5 7 16 15 13 17 16 16 16 14 15 14 15 14 14 13 14 14 15 14 14 12 7 6 5 2 5 7 5 4
9 13 12 8 14 9 11 15 15 14 15 13 13 11 12 12 12 12 12 13 13 13 14 12 10 10 10 10 10 9 8 7
9 3 8 11 11 11 11 14 14 14 13 12 11 11 9 9 9 9 11 12 12 12 12 11 9 10 11 11 11 10 8 9
7 5 11 11 13 11 12 12 14 13 12 12 10 8 7 7 6 7 9 9 10 11 9 10 10 8 9 10 11 11 10 11
9 7 13 12 12 3 15 12 12 10 9 9 8 7 6 4 5 7 5 7 8 8 10 8 10 9 9 9 11 11 12 12
4 12 3 17 4 27 18 18 13 13 8 7 6 4 3 4 4 3 4 7 4 7 9 10 11 10 12 11 13 10 12 13
Wind_Direction
241 221 46 34 37 35 89 77 275 124 33 41 41 54 75 78 101 90 125 139 116 132 139 144 138 135 131 137 142 147 152 158
250 58 64 58 22 14 100 274 82 61 303 80 41 75 78 86 105 149 119 116 128 129 135 144 145 140 141 141 137 145 154 159
212 86 65 41 52 321 32 87 248 126 115 95 89 99 101 113 118 112 115 108 138 134 139 143 142 134 133 143 139 148 156 166
92 94 51 52 2 287 119 52 346 146 64 89 109 109 124 119 100 92 112 119 135 141 147 148 147 150 143 134 130 141 152 162
358 94 61 6 3 19 35 64 35 347 46 45 97 101 100 86 81 96 130 115 148 160 155 159 161 159 153 148 150 154 153 158
351 20 74 345 105 50 355 47 67 10 138 169 110 127 115 131 121 121 128 127 142 165 171 185 169 173 175 174 173 171 176 183
37 11 49 23 14 13 254 88 70 53 60 90 117 140 127 132 130 101 54 127 127 172 158 193 179 163 174 186 195 200 206 209
23 26 3 66 29 0 35 42 24 72 81 110 102 46 38 43 48 45 44 107 65 136 100 185 149 146 194 185 205 210 219 205
50 27 336 31 65 32 49 58 49 69 85 65 77 83 75 57 35 24 24 343 200 118 72 342 26 285 231 209 201 183 264 278
37 106 37 58 95 70 71 74 69 62 68 70 58 57 51 45 95 99 139 359 19 79 80 29 30 338 302 263 32 43 3 300
100 81 96 91 82 88 77 80 79 77 76 79 75 71 60 52 48 39 45 42 50 40 30 330 89 116 4 8 16 22 347 305
165 149 112 93 120 111 74 61 76 77 75 65 57 63 66 53 64 63 43 48 43 68 44 12 9 20 37 21 298 179 239 230
186 162 131 70 41 97 113 108 96 97 88 87 89 82 68 66 63 63 59 45 53 68 57 39 22 351 344 345 311 274 268 326
163 194 205 218 149 118 119 114 105 99 90 83 76 72 73 72 63 52 46 56 45 37 65 55 32 22 359 20 288 222 278 291
152 208 277 242 138 117 120 117 114 109 111 105 93 79 75 67 66 57 54 42 37 32 27 14 29 4 5 17 310 333 318 247
178 171 248 124 95 110 130 125 122 124 107 102 94 85 77 74 54 51 47 38 40 29 14 357 9 3 359 347 343 333 330 332
65 112 244 98 141 155 136 132 140 127 123 115 113 104 93 79 61 55 50 41 27 26 15 357 9 360 356 348 342 341 324 339
142 204 266 145 168 157 164 149 137 140 131 129 123 112 92 82 71 53 43 38 29 17 15 8 357 6 357 335 334 327 339 324
215 185 256 192 144 310 167 159 134 118 128 135 127 128 105 83 44 16 29 31 28 11 352 17 1 5 357 342 343 347 334 336
180 253 214 262 250 203 175 163 174 146 146 134 131 148 133 84 66 353 4 103 25 15 5 9 4 351 347 352 345 334 334 341